VE3FWM Weather Reports


time (UTC)temp
F
wind
direction
speed
knots
gust
knots
rain 1hr
in
rain 24hr
in
rain mn
in
humidity
%
barometer
mb
20260504001516 50 238 1.7 7.0 0.00 0.00 0.00 77 1008.0
20260504000016 50 235 1.7 8.7 0.00 0.00 0.00 78 1008.0
20260503234526 50 236 1.7 10.4 0.00 0.00 0.00 77 1008.2
20260503233012 50 229 1.7 11.3 0.00 0.00 0.00 77 1008.4
20260503231511 50 177 1.7 8.7 0.00 0.00 0.00 77 1008.5
20260503230015 50 228 2.6 8.7 0.00 0.00 0.00 78 1008.7
20260503224513 50 221 2.6 10.4 0.00 0.00 0.00 78 1008.7
20260503223010 50 262 3.5 13.9 0.00 0.00 0.00 78 1009.0
20260503221509 50 274 4.3 14.8 0.00 0.00 0.00 79 1009.1
20260503220024 50 199 3.5 13.9 0.00 0.00 0.00 78 1009.1
20260503214508 51 205 2.6 9.6 0.00 0.00 0.00 78 1009.2
20260503213009 51 240 2.6 14.8 0.00 0.00 0.00 78 1009.4
20260503211506 51 229 1.7 9.6 0.00 0.00 0.00 77 1009.3
20260503210006 51 277 2.6 18.2 0.00 0.00 0.00 74 1009.4
20260503204506 52 254 2.6 16.5 0.00 0.00 0.00 70 1009.4
20260503203003 55 240 3.5 21.7 0.00 0.00 0.00 58 1009.1
20260503201559 57 245 1.7 16.5 0.00 0.00 0.00 53 1009.0
20260503200104 58 246 1.7 16.5 0.00 0.00 0.00 45 1008.6
20260503194555 58 182 0.9 13.0 0.00 0.00 0.00 42 1008.5
20260503193103 59 273 1.7 11.3 0.00 0.00 0.00 40 1008.7
20260503191556 59 240 1.7 9.6 0.00 0.00 0.00 41 1008.7
20260503190054 59 249 1.7 8.7 0.00 0.00 0.00 39 1008.9
20260503184604 58 264 0.9 9.6 0.00 0.00 0.00 40 1009.4
20260503183057 59 242 1.7 11.3 0.00 0.00 0.00 39 1009.6
20260503181545 60 246 2.6 8.7 0.00 0.00 0.00 38 1009.7
20260503180044 59 207 1.7 10.4 0.00 0.00 0.00 39 1010.0
20260503174541 60 187 1.7 13.0 0.00 0.00 0.00 39 1010.3
20260503173037 59 216 3.5 14.8 0.00 0.00 0.00 39 1010.7
20260503171533 58 210 2.6 9.6 0.00 0.00 0.00 41 1010.9
20260503081622 28 281 0.0 0.0 0.00 0.00 0.00 74 1014.4
20260503080110 29 281 0.0 0.0 0.00 0.00 0.00 72 1014.4
20260503071551 29 281 0.0 0.9 0.00 0.00 0.00 74 1014.5
20260503054543 32 276 0.0 0.0 0.00 0.00 0.00 66 1015.1
20260503053033 33 276 0.0 0.9 0.00 0.00 0.00 64 1015.1
20260503051528 34 276 0.0 0.0 0.00 0.00 0.00 61 1015.1
20260503050035 35 276 0.0 0.9 0.00 0.00 0.00 60 1015.2
20260503044522 35 269 0.0 1.7 0.00 0.00 0.00 59 1015.2
20260503043019 35 269 0.0 2.6 0.00 0.00 0.00 58 1015.3
20260503041514 36 273 0.0 1.7 0.00 0.00 0.00 57 1015.3
20260503040011 36 265 0.0 1.7 0.00 0.00 0.00 57 1015.4
20260503034511 37 262 0.0 1.7 0.00 0.00 0.00 56 1015.4
20260503033012 37 277 0.0 1.7 0.00 0.00 0.00 55 1015.4
20260503031510 37 259 0.0 1.7 0.00 0.00 0.00 56 1015.4
20260503030009 37 277 0.0 3.5 0.00 0.00 0.00 57 1015.5
20260503024510 36 259 0.0 2.6 0.00 0.00 0.00 60 1015.6
20260503023008 35 249 0.0 1.7 0.00 0.00 0.00 61 1015.6
20260503021509 36 264 0.0 0.9 0.00 0.00 0.00 61 1015.7
20260503020008 37 264 0.0 0.9 0.00 0.00 0.00 60 1015.6
20260503014509 38 262 0.0 0.9 0.00 0.00 0.00 59 1015.6
20260503013019 39 261 0.0 1.7 0.00 0.00 0.00 57 1015.5
20260503011506 39 263 0.0 0.9 0.00 0.00 0.00 56 1015.5
20260503010005 40 254 0.0 2.6 0.00 0.00 0.00 53 1015.4
20260503004505 41 253 0.0 2.6 0.00 0.00 0.00 52 1015.2
20260503003004 42 261 0.0 6.1 0.00 0.00 0.00 50 1015.2